Flag for Luxembourg Weather past 2 weeks in Esch-sur-Alzette, Luxembourg

Now
39 °F

Light rain. Partly cloudy.


Feels Like: 29 °F
Forecast: 30 / 48 °F
Wind: 22 mph from West

Location: Luxembourg Airport

Current Time: Apr 2, 2015 at 8:32:19 AM

Latest Report: Apr 2, 2015 at 7:50 AM


Visibility: 5 mi

Pressure: 29.86 "Hg

Humidity: 100%

Dew point: 39 °F

Location of Esch-sur-AlzetteLocation

Historic Weather in Esch-sur-Alzette — Graph

°F

Esch-sur-Alzette temperature yesterday

Maximum temperature yesterday: 45 °F (at 4:20 PM)
Minimum temperature yesterday: 34 °F (at 7:20 AM)
Average temperature yesterday: 39 °F

Past Weeks' High & Low Weather Summary

 TemperatureHumidityPressure
High64 °F (Mar 18, 2:20 PM)100% (Mar 20, 4:50 AM)30.30 "Hg (Mar 20, 4:50 AM)
Low28 °F (Mar 23, 6:50 AM)30% (Mar 18, 4:50 PM)29.50 "Hg (Mar 29, 7:50 PM)
Average43 °F80%29.96 "Hg
* Reported Mar 18 6:20 AM — Apr 2 7:20 AM, Esch-sur-Alzette, Weather by CustomWeather, © 2015

Note: Actual official high and low records may vary slightly from our data, if they occured in-between our weather recording intervals... More about our weather records

Advertising

Esch-sur-Alzette weather history for previous 24 hours

 ConditionsComfort  
Time TempWeatherWind HumidityBarometerVisibility
7:20 AM
Thu, Apr 2
39 °FLight rain. Partly cloudy.21 mph100%29.89 "Hg4 mi
6:50 AM39 °FLight rain. Partly cloudy.17 mph93%29.89 "Hg4 mi
6:20 AM39 °FLight rain. Partly cloudy.16 mph93%29.89 "Hg4 mi
5:50 AM37 °FRain. Partly cloudy.17 mph100%29.92 "Hg4 mi
5:20 AM39 °FLight rain. Passing clouds.16 mph93%29.95 "Hg4 mi
4:50 AM39 °FLight rain. Passing clouds.17 mph87%29.98 "Hg5 mi
4:20 AM39 °FChilly.16 mph87%29.98 "HgN/A
3:50 AM39 °FChilly.15 mph87%30.01 "HgN/A
3:20 AM39 °FChilly.18 mph87%30.04 "Hg6 mi
2:50 AM39 °FChilly.18 mph81%30.04 "HgN/A
2:20 AM39 °FChilly.16 mph81%30.07 "HgN/A
1:50 AM39 °FPassing clouds.16 mph81%30.09 "HgN/A
1:20 AM39 °FChilly.17 mph81%30.09 "HgN/A
12:50 AM39 °FChilly.13 mph75%30.12 "HgN/A
12:20 AM39 °FPassing clouds.13 mph75%30.12 "HgN/A
11:50 PM
Wed, Apr 1
39 °FPassing clouds.16 mph75%30.12 "HgN/A
11:20 PM39 °FPassing clouds.13 mph75%30.15 "HgN/A
10:50 PM39 °FPassing clouds.14 mph75%30.15 "HgN/A
10:20 PM41 °FPartly cloudy.13 mph70%30.15 "HgN/A
9:50 PM41 °FPassing clouds.12 mph70%30.15 "HgN/A
9:20 PM39 °FPassing clouds.12 mph75%30.15 "HgN/A
8:50 PM39 °FScattered clouds.9 mph81%30.15 "HgN/A
8:20 PM41 °FScattered clouds.12 mph70%30.15 "HgN/A
7:50 PM41 °FScattered clouds.12 mph66%30.15 "HgN/A
7:20 PM41 °FPartly sunny.13 mph66%30.15 "HgN/A
6:50 PM43 °FPartly sunny.15 mph61%30.15 "HgN/A
6:20 PM45 °FPartly sunny.20 mph49%30.15 "HgN/A
5:50 PM45 °FScattered clouds.15 mph53%30.15 "HgN/A
5:20 PM45 °FScattered clouds.17 mph53%30.15 "HgN/A
4:50 PM45 °FScattered clouds.20 mph53%30.15 "HgN/A
4:20 PM45 °FPassing clouds.18 mph53%30.15 "HgN/A
3:50 PM43 °FPassing clouds.15 mph66%30.15 "HgN/A
3:20 PM41 °FSnow flurries. Partly sunny.18 mph66%30.15 "HgN/A
2:50 PM41 °FSnow flurries. Partly sunny.18 mph66%30.15 "HgN/A
2:20 PM41 °FScattered clouds.18 mph70%30.15 "HgN/A
1:50 PM41 °FPartly sunny.18 mph66%30.15 "HgN/A
1:20 PM41 °FPartly sunny.16 mph61%30.15 "HgN/A
12:50 PM39 °FBroken clouds.16 mph65%30.15 "HgN/A
12:20 PM39 °FBroken clouds.15 mph70%30.15 "HgN/A
11:50 AM39 °FBroken clouds.16 mph70%30.15 "HgN/A
11:20 AM39 °FBroken clouds.16 mph70%30.12 "HgN/A
10:50 AM39 °FBroken clouds.16 mph70%30.12 "HgN/A
10:20 AM39 °FScattered clouds.20 mph70%30.12 "HgN/A
9:50 AM39 °FPassing clouds.18 mph70%30.09 "HgN/A
9:20 AM37 °FPassing clouds.14 mph75%30.09 "HgN/A
8:50 AM37 °FPassing clouds.14 mph75%30.09 "HgN/A
8:20 AM36 °FPassing clouds.13 mph81%30.07 "HgN/A
Weather by CustomWeather, © 2015

See weather overviewHow to use our weather pages